Weather History for Fort Smith, AR

Change the Weather History Date:

Sunday, April 29, 2012

  Actual Average Record
Temperature  
Mean Temperature 78 °F 65 °F  
Max Temperature 85 °F 77 °F 93 °F (1962)
Min Temperature 70 °F 54 °F 34 °F (1965)
Degree Days  
Heating Degree Days 0 2  
Month to date heating degree days 46 153  
Since 1 July heating degree days 2319 3212  
Cooling Degree Days 13 3  
Month to date cooling degree days 120 52  
Year to date cooling degree days 220 64  
Growing Degree Days 27 (Base 50)    
Moisture  
Dew Point 63 °F    
Average Humidity 64    
Maximum Humidity 79    
Minimum Humidity 48    
Precipitation  
Precipitation 0.00 in 0.16 in 2.26 in (1893)
Month to date precipitation 2.34 4.13  
Year to date precipitation 17.00 13.55  
Sea Level Pressure  
Sea Level Pressure 29.94 in    
Wind  
Wind Speed 5 mph (South)    
Max Wind Speed 15 mph    
Max Gust Speed 18 mph    
Visibility 10 miles    
Events      
T = Trace of Precipitation, MM = Missing Value Source: NWS Daily Summary

Daily Weather History Graph

Daily Weather History Graph

Search for Another Location

Airport:

Trip Planner

Search our weather history database for the weather conditions in past years. The results will help you decide how hot, cold, wet, or windy it might be!

Date:

Astronomy

Apr. 29, 2012 Rise Set
Actual Time 6:27 AM CDT 8:02 PM CDT
Civil Twilight 6:00 AM CDT 8:29 PM CDT
Nautical Twilight 5:28 AM CDT 9:02 PM CDT
Astronomical Twilight 4:53 AM CDT 9:36 PM CDT
Moon 1:10 PM CDT (4/29) 2:02 AM CDT (4/29)
Length of Visible Light 14h 28m
Length of Day
13h 34m
First Quarter, 53% of the Moon is Illuminated
Apr 29
First Quarter
May 5
Full
May 12
Last Quarter
May 20
New
May 28
First Quarter

Hourly Weather History & Observations

Time (CDT) Temp. Heat Index Dew Point Humidity Pressure Visibility Wind Dir Wind Speed Gust Speed Precip Events Conditions
12:53 AM 71.1 °F - 64.0 °F 78% 29.90 in 10.0 mi ENE 4.6 mph - N/A   Clear
1:19 AM 71.6 °F - 64.4 °F 78% 29.92 in 10.0 mi Calm Calm - N/A   Clear
1:53 AM 73.0 °F - 64.0 °F 73% 29.91 in 10.0 mi Calm Calm - N/A   Mostly Cloudy
2:00 AM 73.4 °F - 64.4 °F 73% 29.93 in 10.0 mi Calm Calm - N/A   Mostly Cloudy
2:53 AM 72.0 °F - 63.0 °F 73% 29.91 in 10.0 mi East 5.8 mph - N/A   Mostly Cloudy
3:53 AM 71.1 °F - 64.0 °F 78% 29.91 in 10.0 mi ENE 3.5 mph - N/A   Mostly Cloudy
4:53 AM 71.1 °F - 63.0 °F 75% 29.91 in 10.0 mi NE 3.5 mph - N/A   Clear
5:53 AM 71.1 °F - 62.1 °F 73% 29.91 in 10.0 mi Calm Calm - N/A   Clear
6:53 AM 71.1 °F - 59.0 °F 66% 29.95 in 10.0 mi SSW 5.8 mph - N/A   Clear
7:53 AM 73.0 °F - 60.1 °F 64% 29.97 in 10.0 mi South 3.5 mph - N/A   Clear
8:53 AM 73.9 °F - 61.0 °F 64% 29.98 in 10.0 mi South 8.1 mph - N/A   Clear
9:53 AM 75.0 °F - 62.1 °F 64% 29.99 in 10.0 mi SSE 4.6 mph - N/A   Clear
10:53 AM 77.0 °F - 62.1 °F 60% 30.00 in 10.0 mi Variable 3.5 mph - N/A   Partly Cloudy
11:53 AM 77.0 °F - 63.0 °F 62% 30.00 in 10.0 mi Variable 4.6 mph - N/A   Mostly Cloudy
12:53 PM 78.1 °F - 64.0 °F 62% 29.99 in 10.0 mi Variable 5.8 mph - N/A   Overcast
1:53 PM 81.0 °F 82.7 °F 64.9 °F 58% 29.96 in 10.0 mi South 10.4 mph - N/A   Mostly Cloudy
2:53 PM 82.9 °F 84.4 °F 64.0 °F 53% 29.94 in 10.0 mi South 9.2 mph 18.4 mph N/A   Scattered Clouds
3:53 PM 84.9 °F 85.9 °F 63.0 °F 48% 29.92 in 10.0 mi SSW 13.8 mph - N/A   Clear
4:53 PM 84.9 °F 85.9 °F 63.0 °F 48% 29.91 in 10.0 mi SSW 9.2 mph - N/A   Partly Cloudy
5:53 PM 84.0 °F 84.5 °F 62.1 °F 47% 29.91 in 10.0 mi SSW 10.4 mph - N/A   Scattered Clouds
6:53 PM 82.9 °F 83.7 °F 62.1 °F 49% 29.91 in 10.0 mi SSW 10.4 mph - N/A   Clear
7:53 PM 79.0 °F - 63.0 °F 58% 29.92 in 10.0 mi South 3.5 mph - N/A   Clear
8:53 PM 78.1 °F - 62.1 °F 58% 29.93 in 10.0 mi South 5.8 mph - N/A   Clear
9:53 PM 77.0 °F - 60.8 °F 57% 29.95 in 10.0 mi South 5.8 mph - N/A   Clear
10:53 PM 75.0 °F - 61.0 °F 62% 29.91 in 10.0 mi South 9.2 mph - N/A   Clear
11:53 PM 75.9 °F - 60.1 °F 58% 29.91 in 10.0 mi South 9.2 mph - N/A   Clear